Location: *
(46.1866°S, 178.5290°W)
Time: 03:42:02
(UTC+00:00)

CZ-4B R/B - Pass Details

Date: 30 September 2021
Orbit: 809 x 881 km, 99.1° (Epoch: 17 October)

Event Time Altitude Azimuth Distance (km) Brightness Sun altitude
Rises 16:17:06 0° 64° (ENE) 3,401 7.1 -12.5°
Reaches altitude 10° 16:20:11 10° 82° (E) 2,461 6.7 -12.0°
Maximum altitude 16:23:43 18° 123° (ESE) 1,956 6.2 -11.5°
Drops below altitude 10° 16:27:14 10° 164° (SSE) 2,453 6.1 -10.9°
Sets 16:30:17 0° 182° (S) 3,384 6.5 -10.4°
